Weather History for KONT - December, 2013

Change the Weather History Date:

Sunday, December 29, 2013

  Actual Average Record
Temperature  
Mean Temperature 61 °F 54 °F  
Max Temperature 75 °F 65 °F 79 °F (2000)
Min Temperature 46 °F 43 °F 36 °F (2003)
Degree Days  
Heating Degree Days 4 11  
Month to date heating degree days 249 313  
Since 1 July heating degree days 407 535  
Cooling Degree Days 0 0  
Month to date cooling degree days 4 0  
Year to date cooling degree days 2001 1705  
Growing Degree Days 10 (Base 50)    
Moisture  
Dew Point 15 °F    
Average Humidity 39    
Maximum Humidity 71    
Minimum Humidity 7    
Precipitation  
Precipitation 0.00 in 0.18 in 1.22 in (2004)
Month to date precipitation 0.36 1.98  
Year to date precipitation 3.71 14.70  
Since 1 July precipitation 0.92 4.32  
Snow  
Snow 0.00 in - - ()
Month to date snowfall 0.0  
Year to date snowfall 0.0  
Since 1 July snowfall 0.0  
Snow Depth 0.00 in    
Sea Level Pressure  
Sea Level Pressure 30.04 in    
Wind  
Wind Speed 13 mph (North)    
Max Wind Speed 35 mph    
Max Gust Speed 49 mph    
Visibility 10 miles    
Events      
T = Trace of Precipitation, MM = Missing Value Source: NWS Daily Summary

Daily Weather History Graph

Daily Weather History Graph

Search for Another Location

Airport or City:

Trip Planner

Search our weather history database for the weather conditions in past years. The results will help you decide how hot, cold, wet, or windy it might be!

Date:

Astronomy

Dec. 29, 2013 Rise Set
Actual Time 6:55 AM PST 4:50 PM PST
Civil Twilight 6:27 AM PST 5:17 PM PST
Nautical Twilight 5:56 AM PST 5:49 PM PST
Astronomical Twilight 5:25 AM PST 6:19 PM PST
Moon 3:47 AM PST (12/29) 2:29 PM PST (12/29)
Length of Visible Light 10h 50m
Length of Day
9h 54m
Waning Crescent, 10% of the Moon is Illuminated
Dec 29
Waning Crescent
Jan 1
New
Jan 7
First Quarter
Jan 15
Full
Jan 23
Last Quarter

Hourly Weather History & Observations

Time (PST) Temp. Dew Point Humidity Pressure Visibility Wind Dir Wind Speed Gust Speed Precip Events Conditions
12:53 AM 50.0 °F 39.0 °F 66% 29.98 in 10.0 mi ESE 6.9 mph - N/A   Clear
1:53 AM 48.0 °F 39.0 °F 71% 30.00 in 10.0 mi West 3.5 mph - N/A   Clear
2:53 AM 52.0 °F 28.9 °F 41% 29.99 in 10.0 mi WNW 8.1 mph - N/A   Clear
3:53 AM 48.9 °F 32.0 °F 52% 29.99 in 10.0 mi Calm Calm - N/A   Clear
4:42 AM 64.4 °F 14.0 °F 14% 30.01 in 10.0 mi ENE 26.5 mph 39.1 mph N/A   Clear
4:53 AM 64.0 °F 14.0 °F 14% 29.97 in 10.0 mi NNE 21.9 mph 38.0 mph N/A   Clear
5:53 AM 64.0 °F 12.0 °F 13% 29.98 in 10.0 mi ENE 21.9 mph 40.3 mph N/A   Clear
6:53 AM 64.0 °F 9.0 °F 12% 29.99 in 10.0 mi NE 31.1 mph 42.6 mph N/A   Clear
7:53 AM 66.0 °F 7.0 °F 10% 30.04 in 10.0 mi NE 25.3 mph 39.1 mph N/A   Clear
8:53 AM 66.9 °F 6.1 °F 9% 30.04 in 9.0 mi North 20.7 mph 36.8 mph N/A   Clear
9:53 AM 68.0 °F 8.1 °F 10% 30.07 in 10.0 mi WSW 12.7 mph 24.2 mph N/A   Clear
10:53 AM 71.1 °F 3.0 °F 7% 30.07 in 10.0 mi NNE 11.5 mph 23.0 mph N/A   Clear
11:53 AM 72.0 °F 3.9 °F 7% 30.04 in 10.0 mi NNE 16.1 mph 27.6 mph N/A   Clear
12:53 PM 73.0 °F 7.0 °F 8% 30.04 in 10.0 mi North 11.5 mph 24.2 mph N/A   Clear
1:53 PM 73.9 °F 7.0 °F 8% 30.02 in 10.0 mi Variable 4.6 mph - N/A   Clear
2:53 PM 73.9 °F 9.0 °F 8% 30.03 in 10.0 mi WSW 4.6 mph - N/A   Clear
3:53 PM 72.0 °F 1.0 °F 6% 30.04 in 10.0 mi Variable 3.5 mph - N/A   Clear
4:53 PM 69.1 °F -0.9 °F 6% 30.04 in 10.0 mi East 6.9 mph - N/A   Partly Cloudy
5:53 PM 66.9 °F 3.0 °F 8% 30.06 in 10.0 mi Calm Calm - N/A   Partly Cloudy
6:53 PM 62.1 °F 19.9 °F 20% 30.09 in 10.0 mi NW 4.6 mph - N/A   Partly Cloudy
7:53 PM 55.9 °F 23.0 °F 28% 30.10 in 10.0 mi Calm Calm - N/A   Partly Cloudy
8:53 PM 55.9 °F 21.0 °F 26% 30.11 in 10.0 mi Calm Calm - N/A   Partly Cloudy
9:53 PM 53.1 °F 21.0 °F 29% 30.13 in 10.0 mi NNW 3.5 mph - N/A   Clear
10:53 PM 51.1 °F 21.0 °F 31% 30.13 in 10.0 mi North 4.6 mph - N/A   Clear
11:53 PM 53.1 °F 18.0 °F 25% 30.13 in 10.0 mi North 4.6 mph - N/A   Clear